Wind_Speed
44 45 45 46 46 46 45 44 44 44 44 43 43 43 44 45 45 45 45 44 43 44 44 44 44 44 44 44 44 45 45 46 47 47 48 48 49 49
44 45 45 46 47 47 46 45 45 44 45 45 44 44 45 46 46 46 45 44 44 45 44 44 44 44 45 46 46 47 47 48 48 48 49 50 50 50
44 45 45 45 46 47 47 47 47 47 45 44 45 45 46 46 46 45 44 44 45 46 46 46 46 46 47 47 48 48 48 49 49 49 50 50 50 50
44 44 45 45 46 46 47 47 47 47 47 47 46 46 46 47 47 46 45 44 45 46 47 47 47 47 48 49 50 49 49 49 49 49 50 51 50 50
44 45 45 45 46 47 47 48 48 47 47 47 48 48 48 48 48 48 46 46 46 46 47 48 48 48 49 49 50 50 50 50 50 50 50 50 50 49
44 45 45 45 46 47 48 48 48 49 48 48 48 48 49 49 49 49 49 48 48 48 48 48 49 49 49 49 50 50 50 50 50 49 49 49 49 48
44 44 45 45 46 47 48 49 49 49 50 49 48 47 48 48 48 49 49 49 49 49 48 48 49 49 49 49 49 50 50 49 49 48 47 47 46 45
42 43 44 44 45 46 47 48 49 49 50 50 49 48 48 48 48 48 48 49 49 49 49 49 49 49 49 48 49 49 48 47 47 46 46 44 44 43
40 41 42 43 43 43 45 46 48 49 49 49 49 48 48 48 48 48 48 48 48 48 48 48 49 49 49 48 47 46 46 45 44 44 43 43 42 41
38 39 40 41 41 42 43 44 45 46 46 47 47 47 47 47 47 47 47 47 48 48 47 47 47 47 46 45 44 43 43 43 43 42 42 41 40 40
36 37 37 38 39 39 40 41 42 42 43 44 45 45 45 45 45 45 45 45 45 46 45 45 44 44 44 43 42 41 41 41 41 41 41 40 40 39
34 35 35 35 36 36 36 37 38 39 40 40 42 42 42 41 41 41 41 41 41 41 41 41 41 41 41 41 40 39 39 40 40 39 39 39 38 38
32 32 32 32 33 34 34 34 35 36 37 37 38 38 38 38 38 38 38 39 39 38 38 38 37 37 37 37 37 37 36 36 35 35 35 35 35 35
29 29 30 30 31 32 32 33 33 34 34 35 35 35 35 35 35 36 36 36 36 35 35 35 34 34 34 34 34 33 33 32 32 32 32 32 32 33
27 27 27 28 29 29 29 30 30 30 31 31 32 32 33 33 33 34 33 33 32 32 32 32 33 32 32 32 31 31 30 30 30 30 29 29 29 29
25 25 26 26 27 27 27 27 27 27 27 27 28 28 29 30 30 31 30 29 29 29 30 31 31 31 31 31 30 29 28 28 28 28 27 27 27 27
25 25 25 25 25 26 26 26 26 25 26 26 27 27 27 28 28 29 28 28 28 28 28 28 28 29 29 29 28 28 27 27 26 26 26 25 26 25
24 24 23 23 24 24 24 25 25 25 26 26 26 26 26 25 25 25 26 26 26 26 26 26 26 26 26 26 26 25 25 26 26 25 25 25 25 24
22 22 21 21 21 21 22 23 23 24 24 24 24 24 24 23 23 23 23 24 23 23 23 24 24 23 23 23 23 24 23 23 24 25 25 25 24 23
20 20 20 20 21 21 21 21 21 21 21 21 21 21 21 20 20 21 21 21 21 21 21 21 22 22 22 21 22 22 22 21 22 23 23 22 22 22
18 18 18 19 19 19 19 19 19 19 19 18 18 18 18 18 18 18 19 19 19 20 20 20 20 20 20 20 20 19 19 20 20 20 20 20 20 20
16 16 16 16 16 17 17 17 17 17 17 17 16 16 16 17 17 17 17 17 18 18 18 19 19 18 18 18 18 18 18 18 18 18 18 18 18 18
15 15 15 15 15 15 15 15 15 15 15 15 15 15 15 15 15 15 16 16 16 17 17 17 17 17 17 17 16 16 16 16 16 16 15 15 15 15
Wind_Direction
260 260 260 259 259 259 259 261 262 262 262 263 263 264 264 265 266 267 268 268 268 268 268 270 270 271 272 274 275 276 277 277 277 278 278 279 280 281
261 261 261 260 259 258 259 259 260 262 262 262 263 264 265 265 267 268 269 268 269 269 269 269 270 271 273 274 275 276 277 277 277 278 278 278 280 281
261 261 260 260 259 258 258 259 260 261 262 262 264 264 265 266 267 268 267 268 269 270 270 272 272 272 274 275 276 277 277 277 278 278 278 279 280 281
262 261 261 260 259 258 258 259 260 260 261 262 264 265 265 267 268 267 267 269 270 270 271 272 272 273 274 275 276 277 278 278 278 278 279 280 281 280
263 263 262 261 259 258 258 259 259 259 261 263 264 265 266 268 268 269 268 270 271 271 272 273 273 274 275 276 277 277 278 278 278 279 280 280 280 280
264 263 263 262 261 260 259 258 258 259 261 262 264 265 266 267 268 269 269 270 272 273 274 274 274 274 274 276 277 278 279 279 279 280 280 280 280 279
265 265 265 264 262 262 260 259 259 260 260 262 264 265 266 266 267 269 269 271 272 274 275 274 273 274 275 276 277 278 279 279 279 280 280 280 280 278
266 266 265 263 262 262 262 261 260 260 261 263 264 265 266 266 267 269 271 272 273 274 274 273 273 274 275 276 277 278 278 279 280 280 280 280 279 278
266 267 266 264 263 263 263 262 262 262 262 262 264 265 265 265 267 270 271 272 273 274 273 274 274 274 274 276 277 278 279 279 280 280 280 280 278 276
267 267 267 265 263 263 263 263 263 263 263 263 263 265 265 265 267 269 271 272 273 274 273 274 274 274 274 275 276 277 278 279 280 280 280 279 278 277
268 269 268 266 265 265 265 265 265 264 263 264 264 266 267 267 267 269 270 271 273 273 273 273 273 274 273 274 275 276 277 279 280 279 279 278 277 277
270 270 269 268 266 267 267 266 266 265 266 265 266 267 267 267 268 269 270 271 272 272 272 273 273 273 273 273 275 275 277 279 279 279 278 278 277 276
270 270 270 269 268 267 267 267 267 267 266 266 267 267 267 268 269 270 270 271 271 272 272 272 272 272 274 275 275 276 278 279 279 279 279 278 277 276
271 271 271 270 269 268 268 268 268 267 266 266 266 267 268 268 269 270 271 272 271 271 270 270 271 271 273 274 276 277 279 279 278 279 280 279 277 277
272 272 272 272 271 270 269 269 268 268 267 267 267 267 268 269 270 271 271 270 269 268 268 269 270 270 271 273 275 277 279 279 279 278 279 279 277 277
272 272 272 273 272 271 270 270 269 268 267 268 268 268 268 269 270 269 269 268 267 266 268 269 270 270 271 272 274 276 277 277 278 279 280 279 278 277
271 272 271 272 272 272 270 270 269 268 267 268 270 270 271 270 269 268 267 267 268 269 270 271 272 271 271 272 273 274 274 275 277 279 279 279 280 281
272 272 271 271 272 272 270 270 271 271 270 271 271 271 271 271 269 267 267 268 269 269 271 272 273 273 272 271 270 272 274 275 277 279 279 279 280 282
271 271 272 273 274 274 274 274 275 275 274 274 273 272 272 270 268 267 268 269 270 269 270 271 272 273 274 273 272 272 273 275 277 278 279 280 280 282
271 271 273 274 274 275 277 277 278 279 278 278 276 274 272 269 268 269 270 271 272 270 270 271 272 274 274 274 274 274 275 277 279 281 281 282 282 283
272 273 273 273 273 274 277 278 280 282 281 279 277 274 271 269 269 272 273 273 273 272 272 273 275 276 276 275 275 276 278 278 280 283 283 284 284 284
272 273 273 272 272 273 274 276 279 280 281 280 278 276 275 274 273 273 275 276 274 273 273 275 276 277 277 277 278 278 280 281 282 283 285 285 285 285
272 272 273 273 273 274 275 276 277 279 281 282 279 277 278 277 276 276 276 277 276 275 275 276 276 276 276 277 278 280 281 283 284 286 287 287 287 287
Height
5647 5648 5649 5650 5652 5653 5655 5656 5658 5659 5661 5662 5662 5663 5663 5664 5664 5664 5664 5663 5663 5664 5664 5664 5663 5663 5662 5661 5660 5658 5657 5655 5653 5651 5649 5647 5645 5642
5635 5636 5638 5639 5640 5641 5643 5644 5646 5647 5649 5650 5650 5651 5652 5652 5652 5652 5652 5652 5652 5652 5652 5652 5651 5651 5650 5649 5647 5646 5644 5642 5640 5638 5636 5634 5631 5629
5624 5625 5626 5627 5628 5629 5631 5633 5634 5635 5637 5638 5638 5639 5640 5640 5640 5640 5640 5640 5641 5640 5640 5640 5639 5638 5637 5636 5634 5632 5630 5629 5627 5625 5622 5620 5617 5615
5611 5612 5613 5614 5615 5617 5619 5620 5622 5623 5625 5626 5626 5627 5627 5628 5628 5628 5628 5628 5628 5628 5628 5627 5626 5625 5624 5622 5621 5619 5617 5615 5613 5611 5609 5606 5604 5601
5599 5600 5601 5601 5603 5604 5606 5607 5609 5610 5611 5613 5614 5614 5615 5615 5615 5616 5616 5616 5615 5615 5614 5614 5613 5611 5610 5608 5607 5605 5603 5602 5600 5597 5594 5592 5589 5587
5586 5587 5588 5588 5590 5591 5592 5594 5595 5597 5598 5599 5600 5601 5602 5602 5602 5602 5603 5603 5603 5602 5601 5600 5599 5598 5596 5595 5593 5591 5589 5587 5585 5583 5580 5578 5575 5573
5574 5575 5575 5576 5576 5577 5578 5580 5581 5583 5584 5585 5586 5587 5588 5588 5589 5589 5589 5589 5589 5588 5587 5587 5586 5584 5583 5581 5579 5577 5575 5573 5571 5568 5566 5564 5561 5559
5562 5562 5563 5563 5564 5564 5565 5566 5567 5569 5570 5572 5573 5574 5574 5575 5575 5575 5575 5576 5576 5576 5574 5572 5571 5570 5568 5567 5565 5563 5561 5559 5557 5554 5552 5550 5548 5547
5550 5550 5550 5551 5551 5551 5552 5553 5554 5555 5556 5558 5559 5560 5561 5562 5562 5562 5562 5561 5561 5560 5559 5558 5557 5556 5554 5553 5551 5549 5547 5545 5543 5542 5540 5538 5536 5534
5538 5538 5538 5538 5539 5539 5539 5540 5541 5542 5543 5545 5546 5547 5547 5547 5548 5548 5547 5547 5547 5546 5545 5544 5543 5542 5541 5539 5538 5536 5535 5533 5531 5529 5527 5525 5524 5522
5527 5527 5527 5527 5527 5527 5528 5528 5529 5530 5530 5531 5532 5533 5533 5534 5534 5533 5534 5534 5534 5533 5532 5531 5530 5528 5527 5527 5525 5524 5522 5521 5519 5517 5515 5514 5512 5511
5517 5517 5516 5516 5516 5516 5516 5516 5517 5517 5518 5519 5519 5520 5521 5521 5521 5521 5521 5521 5520 5520 5519 5518 5517 5516 5515 5514 5513 5512 5510 5509 5507 5505 5504 5502 5501 5499
5507 5506 5506 5506 5505 5505 5505 5506 5506 5506 5507 5507 5508 5508 5509 5509 5510 5509 5509 5508 5508 5508 5507 5506 5505 5503 5503 5503 5502 5500 5499 5498 5496 5494 5493 5491 5490 5488
5497 5497 5497 5496 5496 5496 5495 5495 5495 5495 5496 5496 5497 5497 5498 5499 5499 5498 5498 5497 5496 5496 5496 5495 5494 5493 5492 5491 5491 5490 5488 5487 5486 5485 5483 5481 5480 5478
5489 5489 5488 5488 5487 5487 5487 5486 5486 5486 5486 5487 5487 5488 5488 5488 5488 5487 5487 5486 5486 5486 5485 5485 5484 5483 5482 5481 5481 5480 5479 5478 5476 5475 5474 5472 5471 5469
5482 5481 5481 5480 5479 5479 5479 5478 5478 5478 5477 5478 5478 5478 5477 5477 5477 5477 5477 5477 5477 5477 5476 5475 5474 5473 5472 5472 5471 5471 5470 5469 5468 5467 5465 5464 5462 5461
5474 5474 5473 5473 5472 5472 5471 5471 5470 5470 5470 5469 5469 5469 5469 5468 5468 5468 5468 5468 5468 5468 5467 5466 5465 5464 5463 5463 5463 5463 5462 5461 5460 5459 5458 5456 5455 5454
5467 5467 5466 5466 5465 5465 5464 5464 5463 5463 5462 5461 5461 5460 5460 5460 5459 5459 5459 5459 5459 5459 5458 5458 5457 5456 5456 5455 5456 5455 5454 5453 5452 5451 5450 5449 5448 5446
5460 5460 5459 5459 5459 5458 5458 5457 5456 5455 5454 5453 5453 5452 5452 5452 5452 5452 5451 5451 5451 5451 5451 5450 5449 5449 5449 5449 5448 5447 5447 5446 5445 5444 5443 5442 5440 5439
5454 5453 5453 5453 5452 5452 5451 5451 5450 5449 5448 5447 5446 5445 5445 5445 5445 5445 5444 5444 5444 5444 5444 5443 5443 5443 5442 5442 5441 5440 5440 5439 5438 5437 5436 5435 5433 5432
5448 5447 5447 5447 5446 5446 5446 5445 5444 5443 5442 5441 5440 5439 5439 5439 5439 5438 5438 5438 5438 5437 5437 5437 5437 5436 5435 5435 5435 5434 5433 5433 5432 5431 5430 5429 5427 5427
5442 5442 5442 5441 5441 5441 5440 5440 5439 5438 5437 5436 5435 5435 5434 5434 5433 5433 5433 5432 5432 5432 5432 5431 5431 5430 5430 5429 5429 5428 5428 5427 5426 5425 5424 5423 5422 5421
5438 5437 5437 5437 5436 5436 5435 5435 5434 5433 5432 5432 5431 5430 5430 5429 5429 5428 5428 5427 5427 5427 5426 5426 5425 5425 5425 5424 5424 5423 5423 5422 5421 5420 5419 5418 5417 5416